Tracking 30995 objects as of 5-Jul-2025
HD Live streaming from Space Station
objects crossing your sky now

ONEWEB-0224

Track ONEWEB-0224 now!
10-day predictions
ONEWEB-0224 is classified as:


NORAD ID: 48794
Int'l Code: 2021-045AD
Perigee: 1,207.0 km
Apogee: 1,210.9 km
Inclination: 87.9 °
Period: 109.5 minutes
Semi major axis: 7579 km
RCS: Unknown
Launch date: May 28, 2021
Source: United Kingdom (UK)
Launch site: VOSTOCHNY COSMODROME (VOSTO)
Your satellite tracking list
STARLINK-3738
Track 1 satellite(s)




NASA's NSSDC Master Catalog

Two Line Element Set (TLE):
1 48794U 21045AD  25185.88856013 -.00000085  00000-0 -26076-3 0  9993
2 48794  87.9068 328.4780 0002574  79.5475 280.5945 13.15549368198612
Source of the keplerian elements: AFSPC